Weather History for Ames, IA

Change the Weather History Date:

Tuesday, November 5, 2013

  Actual Average Record
Temperature  
Mean Temperature 48 °F 42 °F  
Max Temperature 56 °F 52 °F 69 °F (2001)
Min Temperature 39 °F 32 °F 24 °F (2010)
Degree Days  
Heating Degree Days 17 23  
Month to date heating degree days 98 110  
Since 1 July heating degree days 638 706  
Cooling Degree Days 0 0  
Month to date cooling degree days 0 0  
Year to date cooling degree days 913 752  
Moisture  
Dew Point 45 °F    
Average Humidity 86    
Maximum Humidity 100    
Minimum Humidity 71    
Precipitation  
Precipitation 1.01 in 0.10 in 1.08 in (2008)
Month to date precipitation 1.13 0.49  
Sea Level Pressure  
Sea Level Pressure 29.96 in    
Wind  
Wind Speed 7 mph (ENE)    
Max Wind Speed 23 mph    
Max Gust Speed 29 mph    
Visibility 5 miles    
Events Rain    
T = Trace of Precipitation, MM = Missing Value Source: NWS Daily Summary

Daily Weather History Graph

Daily Weather History Graph

Search for Another Location

Airport:

Trip Planner

Search our weather history database for the weather conditions in past years. The results will help you decide how hot, cold, wet, or windy it might be!

Date:

Astronomy

Nov. 05, 2013 Rise Set
Actual Time 6:52 AM CST 5:03 PM CST
Civil Twilight 6:23 AM CST 5:32 PM CST
Nautical Twilight 5:49 AM CST 6:05 PM CST
Astronomical Twilight 5:17 AM CST 6:38 PM CST
Moon 9:09 AM CST (11/5) 7:03 PM CST (11/5)
Length of Visible Light 11h 09m
Length of Day
10h 10m
Waxing Crescent, 7% of the Moon is Illuminated
Nov 5
Waxing Crescent
Nov 9
First Quarter
Nov 17
Full
Nov 25
Last Quarter
Dec 2
New

Hourly Weather History & Observations

Time (CST) Temp. Windchill Dew Point Humidity Pressure Visibility Wind Dir Wind Speed Gust Speed Precip Events Conditions
12:53 AM 39.9 °F - 37.9 °F 93% 30.17 in 10.0 mi Calm Calm - N/A   Overcast
1:53 AM 39.9 °F 36.7 °F 37.0 °F 89% 30.18 in 9.0 mi North 4.6 mph - N/A   Overcast
2:53 AM 39.0 °F - 37.0 °F 93% 30.19 in 9.0 mi Calm Calm - N/A   Overcast
3:53 AM 39.9 °F 37.8 °F 37.0 °F 89% 30.18 in 8.0 mi NNE 3.5 mph - N/A   Overcast
4:53 AM 39.9 °F 36.7 °F 37.0 °F 89% 30.17 in 9.0 mi North 4.6 mph - N/A   Partly Cloudy
5:53 AM 41.0 °F 39.0 °F 37.9 °F 89% 30.18 in 9.0 mi NE 3.5 mph - N/A   Overcast
6:53 AM 42.1 °F 38.4 °F 39.0 °F 89% 30.18 in 7.0 mi ENE 5.8 mph - N/A   Overcast
7:53 AM 43.0 °F 38.8 °F 37.9 °F 82% 30.18 in 9.0 mi East 6.9 mph - N/A   Overcast
8:53 AM 45.0 °F 41.2 °F 39.0 °F 80% 30.17 in 10.0 mi East 6.9 mph - N/A   Overcast
9:31 AM 46.0 °F 42.5 °F 39.0 °F 76% 30.14 in 10.0 mi ENE 6.9 mph - N/A   Overcast
9:53 AM 46.0 °F 42.5 °F 37.9 °F 73% 30.14 in 10.0 mi East 6.9 mph - N/A   Overcast
10:37 AM 45.0 °F 40.1 °F 39.9 °F 82% 30.09 in 4.0 mi East 9.2 mph - 0.01 in Rain Light Rain
10:48 AM 44.6 °F 40.7 °F 42.8 °F 93% 30.09 in 5.0 mi ESE 6.9 mph - 0.02 in Rain Light Rain
10:53 AM 45.0 °F 41.2 °F 42.1 °F 90% 30.10 in 3.0 mi East 6.9 mph - 0.03 in Rain Light Rain
10:56 AM 45.0 °F 41.2 °F 42.1 °F 90% 30.09 in 2.5 mi East 6.9 mph - 0.01 in Rain Rain
11:08 AM 45.0 °F 41.2 °F 43.0 °F 93% 30.08 in 3.0 mi East 6.9 mph - 0.04 in Rain Light Rain
11:25 AM 46.0 °F 41.9 °F 44.1 °F 93% 30.07 in 2.5 mi East 8.1 mph - 0.05 in Rain Light Rain
11:44 AM 46.0 °F 41.4 °F 44.1 °F 93% 30.05 in 1.2 mi ESE 9.2 mph - 0.05 in   Overcast
11:53 AM 46.0 °F 42.5 °F 44.1 °F 93% 30.05 in 1.0 mi East 6.9 mph - 0.06 in Rain Light Rain
12:53 PM 46.9 °F - 45.0 °F 93% 29.99 in 2.0 mi East 10.4 mph - 0.01 in Rain Light Rain
1:05 PM 46.9 °F - 46.0 °F 97% 29.97 in 1.8 mi ESE 6.9 mph - 0.02 in Rain Light Rain
1:53 PM 48.0 °F - 48.0 °F 100% 29.94 in 1.8 mi ESE 9.2 mph - 0.17 in Rain Rain
2:03 PM 48.0 °F - - N/A% 29.92 in 2.5 mi ESE 9.2 mph - 0.01 in Rain Light Rain
2:14 PM 48.9 °F - 48.0 °F 97% 29.91 in 3.0 mi ESE 9.2 mph - 0.01 in Rain Light Rain
2:21 PM 48.9 °F - 48.0 °F 97% 29.90 in 2.5 mi ESE 8.1 mph - 0.03 in Rain Light Rain
2:53 PM 50.0 °F - 48.9 °F 96% 29.89 in 2.0 mi ESE 6.9 mph - 0.08 in Rain Rain
3:00 PM 50.0 °F - 48.9 °F 96% 29.88 in 1.2 mi East 6.9 mph - 0.03 in Rain Rain
3:53 PM 52.0 °F - 52.0 °F 100% 29.86 in 2.0 mi SE 5.8 mph - 0.27 in Rain Rain
4:05 PM 52.0 °F - 52.0 °F 100% 29.86 in 4.0 mi SSE 5.8 mph - 0.00 in Rain Light Rain
4:38 PM 50.0 °F - 50.0 °F 100% 29.86 in 2.0 mi NNW 5.8 mph - 0.04 in Rain Light Rain
4:53 PM 50.0 °F - 48.9 °F 96% 29.86 in 2.0 mi NNW 5.8 mph - 0.06 in Rain Light Rain
5:04 PM 48.9 °F - 48.9 °F 100% 29.84 in 2.0 mi North 4.6 mph - 0.02 in Rain Light Rain
5:30 PM 48.9 °F - 48.9 °F 100% 29.83 in 4.0 mi North 3.5 mph - 0.04 in   Overcast
5:53 PM 50.0 °F - 48.9 °F 96% 29.83 in 2.5 mi Calm Calm - 0.06 in Rain Light Rain
6:03 PM 50.0 °F - 50.0 °F 100% 29.82 in 3.0 mi Calm Calm - 0.01 in Rain Light Rain
6:13 PM 50.0 °F - 50.0 °F 100% 29.82 in 3.0 mi Calm Calm - 0.02 in Rain Light Rain
6:22 PM 50.0 °F - 50.0 °F 100% 29.81 in 2.5 mi Calm Calm - 0.03 in Rain Light Rain
6:53 PM 50.0 °F - 50.0 °F 100% 29.81 in 2.0 mi Calm Calm - 0.04 in Rain Light Rain
7:19 PM 52.0 °F - 51.1 °F 97% 29.80 in 3.0 mi South 5.8 mph - 0.03 in Rain Light Rain
7:50 PM 55.4 °F - 55.4 °F 100% 29.78 in 9.0 mi South 11.5 mph - 0.04 in Rain Light Rain
7:53 PM 55.9 °F - 55.0 °F 97% 29.79 in 8.0 mi South 12.7 mph - 0.04 in Rain Light Rain
8:31 PM 52.0 °F - 51.1 °F 97% 29.79 in 4.0 mi West 9.2 mph 24.2 mph 0.02 in Rain Light Rain
8:53 PM 48.0 °F - 48.0 °F 100% 29.80 in 6.0 mi NW 9.2 mph - 0.03 in   Overcast
9:11 PM 46.9 °F - 46.9 °F 100% 29.81 in 3.0 mi NW 15.0 mph - 0.00 in Rain Light Rain
9:53 PM 44.1 °F 36.8 °F 43.0 °F 96% 29.82 in 4.0 mi NNW 16.1 mph - 0.02 in Rain Light Rain
10:05 PM 44.1 °F 36.5 °F 43.0 °F 96% 29.82 in 4.0 mi North 17.3 mph - 0.02 in Rain Light Rain
10:53 PM 41.0 °F 32.2 °F 39.9 °F 96% 29.83 in 7.0 mi North 18.4 mph - 0.12 in Rain Light Rain
11:53 PM 39.0 °F 29.0 °F 37.9 °F 96% 29.86 in 8.0 mi North 20.7 mph 28.8 mph 0.02 in   Overcast